PSLV R/B, 40720

Orbit data source: Space-Track

PSLV R/B, 40720 is space debris in SSO originally from a launch on Fri, 10 Jul 2015 UTC launched from the Sirharikota (SRI). Debris objects in space refer to the collection of defunct objects orbiting the Earth. Examples of debris include non-operational satellites, rocket bodies, and fragments generated from explosions, collisions, or faulty payload assembly.

Loading next visibility...
PSLV R/B details
Identifier
40720, 2015-032F
Orbit
SSO
Last TLE update10 hours ago
Origin
Flag of INISRO (IN / IND)
ManufacturerVSSC/LPSC
MissionSpacecraft
Bus & MotorPS-4, Unknown motor
Mass920 kg wet, 920 kg dry
Launch date (UTC)
2015-07-10 (9 years ago)
Launch vehicleUnknown
Launch site
Sirharikota (SRI)
Object type
Payload
Rocket body
Debris
Shape & HBRCyl + Cyl + 2 Nozzle, 3.238 m
Radar Cross Section5.812 m², Large (>1 m²)

Expand to show TLE details & history

TLE from 10 hours ago
0 PSLV R/B
1 40720U 15032F   24361.12572466  .00003733  00000-0  44978-3 0  9994
2 40720  98.1203 306.9957 0005900  51.8440 308.3305 14.84476298511409
Epoch: 2024-12-26T03:01Z
Definitive object data (Epoch: 2024-12-26T03:01:02.61Z)
Latitude0.00001°
Longitude166.62522°
Altitude615.693 km
Speed7.553 km/s
True Right ascension20h 27m 58s
True Declination0° 00' 00"
Sunlit
Object was in daylight at TLE epoch
Visualization TLE readout
Latitude70.86434°
Longitude11.19836°
Altitude625.197 km
Speed7.554 km/s
Apparent Right ascension02h 11m 18s
Apparent Declination36° 55' 57"
Sunlit
Object is in full shadow
Visualization observer readout
Local Sidereal Time12:33:58
Azimuth340.464° N
Elevation-9.966°
Doppler factor1
Orbital elements
Apogee altitude616.399 km
Perigee altitude608.151 km
Semi-major axis6,990.412 km
Eccentricity0.00059
Inclination98.1203°
RAAN306.9957°
Arg. of periapsis51.844°
True anomaly308.27744°
Mean anomaly308.3305°
Eccentric anomaly308.30397°
Mean motion3.71355 °/min
BSTAR0.00044978
Orbital period96.94 mins
Loading maneuver chart data...
Loading historical data...
Loading historical data...
Loading historical data...
Loading historical data...
Loading historical data...
Loading historical data...
Loading historical data...

PSLV R/B Visibility forecast

Observer location: undefined°, undefined

Span
Click to sort rows by Start time (UTC) header in descending order
Start Az.
Max El. time (UTC)
Max El. Az.
Max El.
End time (UTC)
End Az.
7 mins2024-12-26 20:56:20.055Z185.967° SSW2024-12-26 20:59:20.055Z256.559° W39.063°2024-12-26 21:03:20.055Z337.012° NNW
5 mins2024-12-27 08:44:20.055Z59.164° ENE2024-12-27 08:46:20.055Z99.464° ESE22.52°2024-12-27 08:49:20.055Z148.128° SSE
5 mins2024-12-27 10:20:20.055Z328.465° NNW2024-12-27 10:22:20.055Z285.028° WNW24.318°2024-12-27 10:25:20.055Z236.303° WSW
|